• In Belarus
  • List of Countries
  • For 7 days
  • Water Temperature
  • Satellite Maps
  • Weather Map
  • Weather Widgets
  • user-avatar
    Login

    Hourly Weather Wadzhda

    Today, 20 March, Wednesday

    Time Temperature Precipitation Wind Pressure Humidity
    00:00 +7°C° 0 mm 2 mps 717 mmHg 81%
    01:00 +8°C° 0 mm 1 mps 717 mmHg 84%
    02:00 +7°C° 0 mm 1 mps 716 mmHg 87%
    03:00 +6°C° 0 mm 1 mps 716 mmHg 89%
    04:00 +6°C° 0 mm 1 mps 716 mmHg 91%
    05:00 +6°C° 0 mm 1 mps 717 mmHg 92%
    06:00 +6°C° 0 mm 1 mps 717 mmHg 93%
    07:00 +6°C° 0 mm 2 mps 717 mmHg 84%
    08:00 +8°C° 0 mm 2 mps 717 mmHg 75%
    09:00 +9°C° 0 mm 3 mps 718 mmHg 66%
    10:00 +10°C° 0 mm 4 mps 718 mmHg 60%
    11:00 +11°C° 0 mm 4 mps 718 mmHg 55%
    12:00 +12°C° 0 mm 5 mps 718 mmHg 49%
    13:00 +12°C° 0 mm 5 mps 717 mmHg 50%
    14:00 +11°C° 0 mm 6 mps 717 mmHg 52%
    15:00 +11°C° 0 mm 6 mps 716 mmHg 54%
    16:00 +10°C° 0 mm 6 mps 716 mmHg 58%
    17:00 +9°C° 0 mm 6 mps 717 mmHg 63%
    18:00 +9°C° 0 mm 5 mps 717 mmHg 68%
    19:00 +8°C° 0 mm 4 mps 717 mmHg 74%
    20:00 +8°C° 0 mm 3 mps 717 mmHg 80%
    21:00 +7°C° 0 mm 2 mps 718 mmHg 86%
    22:00 +6°C° 0 mm 2 mps 718 mmHg 88%
    23:00 +6°C° 0 mm 2 mps 718 mmHg 89%

    Tomorrow, 21 March, Thursday

    Time Temperature Precipitation Wind Pressure Humidity
    00:00 +6°C° 0 mm 1 mps 718 mmHg 90%
    01:00 +6°C° 0 mm 1 mps 717 mmHg 91%
    02:00 +5°C° 0 mm 1 mps 717 mmHg 92%
    03:00 +5°C° 0 mm 1 mps 716 mmHg 92%
    04:00 +4°C° 0 mm 1 mps 716 mmHg 92%
    05:00 +4°C° 0 mm 1 mps 716 mmHg 92%
    06:00 +3°C° 0 mm 0 mps 716 mmHg 92%
    07:00 +6°C° 0 mm 1 mps 717 mmHg 79%
    08:00 +7°C° 0 mm 2 mps 718 mmHg 67%
    09:00 +9°C° 0 mm 2 mps 718 mmHg 54%
    10:00 +10°C° 0 mm 3 mps 718 mmHg 50%
    11:00 +11°C° 0 mm 4 mps 718 mmHg 47%
    12:00 +13°C° 0 mm 5 mps 718 mmHg 43%
    13:00 +13°C° 0.1 mm 5 mps 717 mmHg 47%
    14:00 +13°C° 0.1 mm 5 mps 717 mmHg 51%
    15:00 +13°C° 0.1 mm 6 mps 716 mmHg 55%
    16:00 +11°C° 0.1 mm 6 mps 716 mmHg 60%
    17:00 +10°C° 0.1 mm 6 mps 716 mmHg 66%
    18:00 +9°C° 0.1 mm 6 mps 716 mmHg 72%
    19:00 +8°C° 0 mm 4 mps 716 mmHg 78%
    20:00 +9°C° 0 mm 3 mps 717 mmHg 84%
    21:00 +8°C° 0 mm 2 mps 717 mmHg 91%
    22:00 +7°C° 0 mm 2 mps 717 mmHg 91%
    23:00 +7°C° 0 mm 2 mps 717 mmHg 92%

    Day after tomorrow, 22 March, Friday

    Time Temperature Precipitation Wind Pressure Humidity
    00:00 +8°C° 0 mm 1 mps 717 mmHg 92%
    01:00 +7°C° 0 mm 1 mps 717 mmHg 92%
    02:00 +7°C° 0 mm 1 mps 717 mmHg 93%
    03:00 +7°C° 0 mm 1 mps 717 mmHg 93%
    04:00 +7°C° 0 mm 1 mps 717 mmHg 93%
    05:00 +6°C° 0 mm 1 mps 716 mmHg 93%
    06:00 +6°C° 0 mm 1 mps 716 mmHg 93%
    07:00 +8°C° 0 mm 1 mps 717 mmHg 85%
    08:00 +10°C° 0 mm 1 mps 717 mmHg 77%
    09:00 +12°C° 0 mm 2 mps 718 mmHg 68%
    10:00 +12°C° 0 mm 3 mps 718 mmHg 63%
    11:00 +14°C° 0 mm 3 mps 718 mmHg 57%
    12:00 +15°C° 0 mm 4 mps 718 mmHg 51%
    13:00 +15°C° 0.7 mm 4 mps 717 mmHg 55%
    14:00 +15°C° 0.7 mm 5 mps 716 mmHg 59%
    15:00 +14°C° 0.7 mm 5 mps 716 mmHg 63%
    16:00 +14°C° 1 mm 5 mps 716 mmHg 69%
    17:00 +13°C° 1 mm 4 mps 716 mmHg 75%
    18:00 +12°C° 1 mm 4 mps 716 mmHg 81%
    19:00 +11°C° 0.3 mm 3 mps 716 mmHg 85%
    20:00 +11°C° 0.3 mm 3 mps 717 mmHg 88%
    21:00 +10°C° 0.3 mm 2 mps 717 mmHg 92%
    22:00 +10°C° 0 mm 2 mps 717 mmHg 93%
    23:00 +10°C° 0 mm 1 mps 717 mmHg 93%

    23 March, Saturday

    Time Temperature Precipitation Wind Pressure Humidity
    00:00 +10°C° 0 mm 1 mps 717 mmHg 94%
    01:00 +9°C° 0 mm 1 mps 716 mmHg 93%
    02:00 +9°C° 0 mm 1 mps 716 mmHg 93%
    03:00 +9°C° 0 mm 1 mps 715 mmHg 93%
    04:00 +8°C° 0 mm 1 mps 715 mmHg 92%
    05:00 +8°C° 0 mm 1 mps 715 mmHg 91%
    06:00 +8°C° 0 mm 1 mps 715 mmHg 91%
    07:00 +10°C° 0 mm 1 mps 715 mmHg 82%
    08:00 +12°C° 0 mm 1 mps 715 mmHg 73%
    09:00 +14°C° 0 mm 2 mps 716 mmHg 65%
    10:00 +15°C° 0 mm 2 mps 715 mmHg 58%
    11:00 +17°C° 0 mm 2 mps 715 mmHg 51%
    12:00 +18°C° 0 mm 3 mps 715 mmHg 44%
    13:00 +19°C° 0.2 mm 3 mps 714 mmHg 42%
    14:00 +19°C° 0.2 mm 3 mps 714 mmHg 41%
    15:00 +19°C° 0.2 mm 4 mps 713 mmHg 40%
    16:00 +18°C° 0.2 mm 3 mps 713 mmHg 46%
    17:00 +17°C° 0.2 mm 3 mps 713 mmHg 52%
    18:00 +17°C° 0.2 mm 2 mps 712 mmHg 58%
    19:00 +16°C° 0.1 mm 2 mps 713 mmHg 62%
    20:00 +15°C° 0.1 mm 2 mps 713 mmHg 66%
    21:00 +15°C° 0.1 mm 1 mps 714 mmHg 70%
    22:00 +15°C° 0.1 mm 2 mps 713 mmHg 69%
    23:00 +14°C° 0.1 mm 2 mps 713 mmHg 69%

    24 March, Sunday

    Time Temperature Precipitation Wind Pressure Humidity
    00:00 +14°C° 0.1 mm 2 mps 713 mmHg 68%
    01:00 +14°C° 0.1 mm 2 mps 713 mmHg 69%
    02:00 +14°C° 0.1 mm 2 mps 712 mmHg 69%
    03:00 +13°C° 0.1 mm 2 mps 712 mmHg 70%
    04:00 +13°C° 0.4 mm 2 mps 712 mmHg 71%
    05:00 +13°C° 0.4 mm 2 mps 712 mmHg 73%
    06:00 +13°C° 0.4 mm 2 mps 712 mmHg 75%
    07:00 +13°C° 1.2 mm 2 mps 712 mmHg 73%
    08:00 +12°C° 1.2 mm 3 mps 712 mmHg 71%
    09:00 +13°C° 1.2 mm 3 mps 713 mmHg 68%
    10:00 +14°C° 0.4 mm 3 mps 713 mmHg 63%
    11:00 +15°C° 0.4 mm 4 mps 713 mmHg 57%
    12:00 +18°C° 0.4 mm 4 mps 713 mmHg 52%
    13:00 +17°C° 0.5 mm 4 mps 712 mmHg 55%
    14:00 +17°C° 0.5 mm 4 mps 712 mmHg 57%
    15:00 +16°C° 0.5 mm 3 mps 711 mmHg 60%
    16:00 +16°C° 0.1 mm 3 mps 711 mmHg 63%
    17:00 +16°C° 0.1 mm 3 mps 711 mmHg 66%
    18:00 +14°C° 0.1 mm 3 mps 712 mmHg 69%
    19:00 +13°C° 0 mm 3 mps 712 mmHg 74%
    20:00 +12°C° 0 mm 3 mps 712 mmHg 79%
    21:00 +12°C° 0 mm 2 mps 712 mmHg 84%
    22:00 +12°C° 0 mm 2 mps 712 mmHg 83%
    23:00 +12°C° 0 mm 2 mps 712 mmHg 82%

    25 March, Monday

    Time Temperature Precipitation Wind Pressure Humidity
    00:00 +12°C° 0 mm 1 mps 712 mmHg 81%
    01:00 +12°C° 0 mm 2 mps 712 mmHg 80%
    02:00 +12°C° 0 mm 2 mps 712 mmHg 79%
    03:00 +12°C° 0 mm 2 mps 711 mmHg 77%
    04:00 +10°C° 0 mm 2 mps 711 mmHg 76%
    05:00 +10°C° 0 mm 2 mps 712 mmHg 75%
    06:00 +10°C° 0 mm 2 mps 712 mmHg 74%
    07:00 +13°C° 0 mm 2 mps 712 mmHg 66%
    08:00 +15°C° 0 mm 2 mps 713 mmHg 59%
    09:00 +17°C° 0 mm 2 mps 713 mmHg 51%
    10:00 +19°C° 0 mm 2 mps 713 mmHg 47%
    11:00 +20°C° 0 mm 3 mps 713 mmHg 43%
    12:00 +21°C° 0 mm 3 mps 713 mmHg 38%
    13:00 +22°C° 0 mm 3 mps 712 mmHg 37%
    14:00 +22°C° 0 mm 3 mps 712 mmHg 37%
    15:00 +22°C° 0 mm 3 mps 711 mmHg 36%
    16:00 +21°C° 0 mm 3 mps 711 mmHg 43%
    17:00 +20°C° 0 mm 3 mps 711 mmHg 50%
    18:00 +18°C° 0 mm 3 mps 711 mmHg 58%
    19:00 +17°C° 0 mm 3 mps 711 mmHg 65%
    20:00 +16°C° 0 mm 2 mps 711 mmHg 71%
    21:00 +14°C° 0 mm 1 mps 711 mmHg 78%
    22:00 +14°C° 0 mm 1 mps 711 mmHg 76%
    23:00 +14°C° 0 mm 1 mps 711 mmHg 73%
    Show more